Year,Month,Day,Hour,Minute,Value (Times are PST for temperature in C)
2012,09,17,00,00,13.50
2012,09,17,00,01,13.60
2012,09,17,00,02,13.60
2012,09,17,00,03,13.60
2012,09,17,00,04,13.60
2012,09,17,00,05,13.60
2012,09,17,00,06,13.60
2012,09,17,00,07,13.60
2012,09,17,00,08,13.70
2012,09,17,00,09,13.70
2012,09,17,00,10,13.70
2012,09,17,00,11,13.70
2012,09,17,00,12,13.70
2012,09,17,00,13,13.70
2012,09,17,00,14,13.70
2012,09,17,00,15,13.70
2012,09,17,00,16,13.70
2012,09,17,00,17,13.70
2012,09,17,00,18,13.70
2012,09,17,00,19,13.70
2012,09,17,00,20,13.70
2012,09,17,00,21,13.60
2012,09,17,00,22,13.60
2012,09,17,00,23,13.60
2012,09,17,00,24,13.60
2012,09,17,00,25,13.60
2012,09,17,00,26,13.60
2012,09,17,00,27,13.60
2012,09,17,00,28,13.60
2012,09,17,00,29,13.50
2012,09,17,00,30,13.50
2012,09,17,00,31,13.50
2012,09,17,00,32,13.50
2012,09,17,00,33,13.50
2012,09,17,00,34,13.50
2012,09,17,00,35,13.50
2012,09,17,00,36,13.50
2012,09,17,00,37,13.50
2012,09,17,00,38,13.50
2012,09,17,00,39,13.50
2012,09,17,00,40,13.50
2012,09,17,00,41,13.50
2012,09,17,00,42,13.50
2012,09,17,00,43,13.50
2012,09,17,00,44,13.50
2012,09,17,00,45,13.50
2012,09,17,00,46,13.50
2012,09,17,00,47,13.50
2012,09,17,00,48,13.60
2012,09,17,00,49,13.60
2012,09,17,00,50,13.60
2012,09,17,00,51,13.60
2012,09,17,00,52,13.60
2012,09,17,00,53,13.60
2012,09,17,00,54,13.50
2012,09,17,00,55,13.50
2012,09,17,00,56,13.50
2012,09,17,00,57,13.50
2012,09,17,00,58,13.50
2012,09,17,00,59,13.40
2012,09,17,01,00,13.40
2012,09,17,01,01,13.40
2012,09,17,01,02,13.30
2012,09,17,01,03,13.30
2012,09,17,01,04,13.30
2012,09,17,01,05,13.30
2012,09,17,01,06,13.30
2012,09,17,01,07,13.30
2012,09,17,01,08,13.30
2012,09,17,01,09,13.30
2012,09,17,01,10,13.30
2012,09,17,01,11,13.30
2012,09,17,01,12,13.30
2012,09,17,01,13,13.40
2012,09,17,01,14,13.40
2012,09,17,01,15,13.50
2012,09,17,01,16,13.50
2012,09,17,01,17,13.50
2012,09,17,01,18,13.50
2012,09,17,01,19,13.50
2012,09,17,01,20,13.60
2012,09,17,01,21,13.60
2012,09,17,01,22,13.60
2012,09,17,01,23,13.60
2012,09,17,01,24,13.60
2012,09,17,01,25,13.60
2012,09,17,01,26,13.60
2012,09,17,01,27,13.50
2012,09,17,01,28,13.50
2012,09,17,01,29,13.50
2012,09,17,01,30,13.50
2012,09,17,01,31,13.50
2012,09,17,01,32,13.50
2012,09,17,01,33,13.40
2012,09,17,01,34,13.40
2012,09,17,01,35,13.40
2012,09,17,01,36,13.40
2012,09,17,01,37,13.40
2012,09,17,01,38,13.40
2012,09,17,01,39,13.40
2012,09,17,01,40,13.40
2012,09,17,01,41,13.50
2012,09,17,01,42,13.50
2012,09,17,01,43,13.50
2012,09,17,01,44,13.50
2012,09,17,01,45,13.50
2012,09,17,01,46,13.50
2012,09,17,01,47,13.50
2012,09,17,01,48,13.50
2012,09,17,01,49,13.50
2012,09,17,01,50,13.50
2012,09,17,01,51,13.60
2012,09,17,01,52,13.60
2012,09,17,01,53,13.60
2012,09,17,01,54,13.60
2012,09,17,01,55,13.60
2012,09,17,01,56,13.60
2012,09,17,01,57,13.60
2012,09,17,01,58,13.60
2012,09,17,01,59,13.60
2012,09,17,02,00,13.70
2012,09,17,02,01,13.70
2012,09,17,02,02,13.70
2012,09,17,02,03,13.70
2012,09,17,02,04,13.70
2012,09,17,02,05,13.70
2012,09,17,02,06,13.70
2012,09,17,02,07,13.70
2012,09,17,02,08,13.70
2012,09,17,02,09,13.70
2012,09,17,02,10,13.70
2012,09,17,02,11,13.70
2012,09,17,02,12,13.60
2012,09,17,02,13,13.60
2012,09,17,02,14,13.60
2012,09,17,02,15,13.50
2012,09,17,02,16,13.50
2012,09,17,02,17,13.50
2012,09,17,02,18,13.40
2012,09,17,02,19,13.40
2012,09,17,02,20,13.40
2012,09,17,02,21,13.40
2012,09,17,02,22,13.40
2012,09,17,02,23,13.40
2012,09,17,02,24,13.30
2012,09,17,02,25,13.30
2012,09,17,02,26,13.30
2012,09,17,02,27,13.30
2012,09,17,02,28,13.30
2012,09,17,02,29,13.30
2012,09,17,02,30,13.30
2012,09,17,02,31,13.30
2012,09,17,02,32,13.30
2012,09,17,02,33,13.30
2012,09,17,02,34,13.20
2012,09,17,02,35,13.20
2012,09,17,02,36,13.20
2012,09,17,02,37,13.10
2012,09,17,02,38,13.10
2012,09,17,02,39,13.10
2012,09,17,02,40,13.10
2012,09,17,02,41,13.00
2012,09,17,02,42,13.00
2012,09,17,02,43,13.00
2012,09,17,02,44,13.00
2012,09,17,02,45,13.00
2012,09,17,02,46,13.00
2012,09,17,02,47,13.00
2012,09,17,02,48,12.90
2012,09,17,02,49,12.90
2012,09,17,02,50,12.90
2012,09,17,02,51,12.90
2012,09,17,02,52,12.90
2012,09,17,02,53,12.90
2012,09,17,02,54,13.00
2012,09,17,02,55,13.00
2012,09,17,02,56,13.00
2012,09,17,02,57,13.00
2012,09,17,02,58,13.00
2012,09,17,02,59,13.00
2012,09,17,03,00,13.00
2012,09,17,03,01,13.00
2012,09,17,03,02,13.00
2012,09,17,03,03,13.00
2012,09,17,03,04,13.00
2012,09,17,03,05,12.90
2012,09,17,03,06,12.90
2012,09,17,03,07,12.90
2012,09,17,03,08,13.00
2012,09,17,03,09,13.00
2012,09,17,03,10,13.00
2012,09,17,03,11,13.00
2012,09,17,03,12,13.10
2012,09,17,03,13,13.10
2012,09,17,03,14,13.10
2012,09,17,03,15,13.20
2012,09,17,03,16,13.20
2012,09,17,03,17,13.20
2012,09,17,03,18,13.20
2012,09,17,03,19,13.20
2012,09,17,03,20,13.20
2012,09,17,03,21,13.20
2012,09,17,03,22,13.20
2012,09,17,03,23,13.20
2012,09,17,03,24,13.20
2012,09,17,03,25,13.30
2012,09,17,03,26,13.30
2012,09,17,03,27,13.30
2012,09,17,03,28,13.30
2012,09,17,03,29,13.30
2012,09,17,03,30,13.30
2012,09,17,03,31,13.30
2012,09,17,03,32,13.30
2012,09,17,03,33,13.30
2012,09,17,03,34,13.30
2012,09,17,03,35,13.30
2012,09,17,03,36,13.30
2012,09,17,03,37,13.30
2012,09,17,03,38,13.30
2012,09,17,03,39,13.30
2012,09,17,03,40,13.40
2012,09,17,03,41,13.50
2012,09,17,03,42,13.60
2012,09,17,03,43,13.70
2012,09,17,03,44,13.80
2012,09,17,03,45,13.90
2012,09,17,03,46,14.00
2012,09,17,03,47,14.10
2012,09,17,03,48,14.20
2012,09,17,03,49,14.20
2012,09,17,03,50,14.30
2012,09,17,03,51,14.40
2012,09,17,03,52,14.50
2012,09,17,03,53,14.50
2012,09,17,03,54,14.60
2012,09,17,03,55,14.60
2012,09,17,03,56,14.70
2012,09,17,03,57,14.70
2012,09,17,03,58,14.80
2012,09,17,03,59,14.80
2012,09,17,04,00,14.80
2012,09,17,04,01,14.90
2012,09,17,04,02,14.90
2012,09,17,04,03,14.90
2012,09,17,04,04,14.90
2012,09,17,04,05,14.90
2012,09,17,04,06,14.90
2012,09,17,04,07,14.90
2012,09,17,04,08,14.90
2012,09,17,04,09,14.90
2012,09,17,04,10,14.90
2012,09,17,04,11,14.90
2012,09,17,04,12,15.00
2012,09,17,04,13,15.00
2012,09,17,04,14,15.00
2012,09,17,04,15,15.00
2012,09,17,04,16,15.00
2012,09,17,04,17,15.00
2012,09,17,04,18,15.00
2012,09,17,04,19,15.00
2012,09,17,04,20,15.00
2012,09,17,04,21,15.10
2012,09,17,04,22,15.10
2012,09,17,04,23,15.10
2012,09,17,04,24,15.10
2012,09,17,04,25,15.10
2012,09,17,04,26,15.20
2012,09,17,04,27,15.20
2012,09,17,04,28,15.30
2012,09,17,04,29,15.30
2012,09,17,04,30,15.30
2012,09,17,04,31,15.30
2012,09,17,04,32,15.30
2012,09,17,04,33,15.30
2012,09,17,04,34,15.30
2012,09,17,04,35,15.30
2012,09,17,04,36,15.30
2012,09,17,04,37,15.30
2012,09,17,04,38,15.30
2012,09,17,04,39,15.30
2012,09,17,04,40,15.30
2012,09,17,04,41,15.30
2012,09,17,04,42,15.30
2012,09,17,04,43,15.30
2012,09,17,04,44,15.30
2012,09,17,04,45,15.30
2012,09,17,04,46,15.30
2012,09,17,04,47,15.30
2012,09,17,04,48,15.30
2012,09,17,04,49,15.30
2012,09,17,04,50,15.30
2012,09,17,04,51,15.30
2012,09,17,04,52,15.30
2012,09,17,04,53,15.30
2012,09,17,04,54,15.30
2012,09,17,04,55,15.30
2012,09,17,04,56,15.30
2012,09,17,04,57,15.30
2012,09,17,04,58,15.30
2012,09,17,04,59,15.30
2012,09,17,05,00,15.30
2012,09,17,05,01,15.30
2012,09,17,05,02,15.30
2012,09,17,05,03,15.30
2012,09,17,05,04,15.30
2012,09,17,05,05,15.30
2012,09,17,05,06,15.30
2012,09,17,05,07,15.30
2012,09,17,05,08,15.20
2012,09,17,05,09,15.20
2012,09,17,05,10,15.20
2012,09,17,05,11,15.20
2012,09,17,05,12,15.20
2012,09,17,05,13,15.20
2012,09,17,05,14,15.10
2012,09,17,05,15,15.10
2012,09,17,05,16,15.10
2012,09,17,05,17,15.10
2012,09,17,05,18,15.10
2012,09,17,05,19,15.00
2012,09,17,05,20,15.00
2012,09,17,05,21,15.00
2012,09,17,05,22,15.00
2012,09,17,05,23,14.90
2012,09,17,05,24,14.90
2012,09,17,05,25,14.90
2012,09,17,05,26,14.80
2012,09,17,05,27,14.80
2012,09,17,05,28,14.80
2012,09,17,05,29,14.80
2012,09,17,05,30,14.80
2012,09,17,05,31,14.70
2012,09,17,05,32,14.70
2012,09,17,05,33,14.70
2012,09,17,05,34,14.70
2012,09,17,05,35,14.70
2012,09,17,05,36,14.70
2012,09,17,05,37,14.60
2012,09,17,05,38,14.60
2012,09,17,05,39,14.60
2012,09,17,05,40,14.60
2012,09,17,05,41,14.60
2012,09,17,05,42,14.60
2012,09,17,05,43,14.60
2012,09,17,05,44,14.60
2012,09,17,05,45,14.60
2012,09,17,05,46,14.60
2012,09,17,05,47,14.60
2012,09,17,05,48,14.60
2012,09,17,05,49,14.60
2012,09,17,05,50,14.60
2012,09,17,05,51,14.60
2012,09,17,05,52,14.60
2012,09,17,05,53,14.60
2012,09,17,05,54,14.60
2012,09,17,05,55,14.60
2012,09,17,05,56,14.60
2012,09,17,05,57,14.60
2012,09,17,05,58,14.60
2012,09,17,05,59,14.60
2012,09,17,06,00,14.70
2012,09,17,06,01,14.70
2012,09,17,06,02,14.70
2012,09,17,06,03,14.70
2012,09,17,06,04,14.80
2012,09,17,06,05,14.80
2012,09,17,06,06,14.80
2012,09,17,06,07,14.80
2012,09,17,06,08,14.80
2012,09,17,06,09,14.80
2012,09,17,06,10,14.80
2012,09,17,06,11,14.80
2012,09,17,06,12,14.80
2012,09,17,06,13,14.80
2012,09,17,06,14,14.80
2012,09,17,06,15,14.80
2012,09,17,06,16,14.90
2012,09,17,06,17,14.90
2012,09,17,06,18,14.90
2012,09,17,06,19,14.90
2012,09,17,06,20,14.90
2012,09,17,06,21,14.90
2012,09,17,06,22,14.90
2012,09,17,06,23,14.90
2012,09,17,06,24,14.90
2012,09,17,06,25,14.90
2012,09,17,06,26,14.90
2012,09,17,06,27,14.90
2012,09,17,06,28,14.90
2012,09,17,06,29,14.90
2012,09,17,06,30,14.90
2012,09,17,06,31,14.90
2012,09,17,06,32,14.90
2012,09,17,06,33,14.90
2012,09,17,06,34,14.80
2012,09,17,06,35,14.80
2012,09,17,06,36,14.80
2012,09,17,06,37,14.80
2012,09,17,06,38,14.80
2012,09,17,06,39,14.80
2012,09,17,06,40,14.80
2012,09,17,06,41,14.80
2012,09,17,06,42,14.80
2012,09,17,06,43,14.80
2012,09,17,06,44,14.80
2012,09,17,06,45,14.80
2012,09,17,06,46,14.80
2012,09,17,06,47,14.80
2012,09,17,06,48,14.80
2012,09,17,06,49,14.80
2012,09,17,06,50,14.80
2012,09,17,06,51,14.80
2012,09,17,06,52,14.80
2012,09,17,06,53,14.80
2012,09,17,06,54,14.80
2012,09,17,06,55,14.80
2012,09,17,06,56,14.80
2012,09,17,06,57,14.80
2012,09,17,06,58,14.80
2012,09,17,06,59,14.80
2012,09,17,07,00,14.80
2012,09,17,07,01,14.80
2012,09,17,07,02,14.80
2012,09,17,07,03,14.80
2012,09,17,07,04,14.80
2012,09,17,07,05,14.80
2012,09,17,07,06,14.70
2012,09,17,07,07,14.70
2012,09,17,07,08,14.70
2012,09,17,07,09,14.70
2012,09,17,07,10,14.60
2012,09,17,07,11,14.60
2012,09,17,07,12,14.50
2012,09,17,07,13,14.50
2012,09,17,07,14,14.40
2012,09,17,07,15,14.40
2012,09,17,07,16,14.30
2012,09,17,07,17,14.20
2012,09,17,07,18,14.20
2012,09,17,07,19,14.20
2012,09,17,07,20,14.20
2012,09,17,07,21,14.20
2012,09,17,07,22,14.20
2012,09,17,07,23,14.20
2012,09,17,07,24,14.20
2012,09,17,07,25,14.20
2012,09,17,07,26,14.20
2012,09,17,07,27,14.20
2012,09,17,07,28,14.20
2012,09,17,07,29,14.30
2012,09,17,07,30,14.30
2012,09,17,07,31,14.30
2012,09,17,07,32,14.40
2012,09,17,07,33,14.40
2012,09,17,07,34,14.40
2012,09,17,07,35,14.50
2012,09,17,07,36,14.50
2012,09,17,07,37,14.50
2012,09,17,07,38,14.50
2012,09,17,07,39,14.50
2012,09,17,07,40,14.50
2012,09,17,07,41,14.50
2012,09,17,07,42,14.50
2012,09,17,07,43,14.50
2012,09,17,07,44,14.50
2012,09,17,07,45,14.50
2012,09,17,07,46,14.50
2012,09,17,07,47,14.50
2012,09,17,07,48,14.50
2012,09,17,07,49,14.50
2012,09,17,07,50,14.50
2012,09,17,07,51,14.40
2012,09,17,07,52,14.40
2012,09,17,07,53,14.40
2012,09,17,07,54,14.40
2012,09,17,07,55,14.40
2012,09,17,07,56,14.40
2012,09,17,07,57,14.30
2012,09,17,07,58,14.30
2012,09,17,07,59,14.30
2012,09,17,08,00,14.30
2012,09,17,08,01,14.30
2012,09,17,08,02,14.40
2012,09,17,08,03,14.40
2012,09,17,08,04,14.40
2012,09,17,08,05,14.40
2012,09,17,08,06,14.50
2012,09,17,08,07,14.50
2012,09,17,08,08,14.50
2012,09,17,08,09,14.60
2012,09,17,08,10,14.60
2012,09,17,08,11,14.60
2012,09,17,08,12,14.70
2012,09,17,08,13,14.70
2012,09,17,08,14,14.70
2012,09,17,08,15,14.80
2012,09,17,08,16,14.80
2012,09,17,08,17,14.80
2012,09,17,08,18,14.90
2012,09,17,08,19,14.90
2012,09,17,08,20,15.00
2012,09,17,08,21,15.10
2012,09,17,08,22,15.10
2012,09,17,08,23,15.20
2012,09,17,08,24,15.30
2012,09,17,08,25,15.40
2012,09,17,08,26,15.50
2012,09,17,08,27,15.60
2012,09,17,08,28,15.80
2012,09,17,08,29,15.90
2012,09,17,08,30,16.00
2012,09,17,08,31,16.10
2012,09,17,08,32,16.20
2012,09,17,08,33,16.20
2012,09,17,08,34,16.30
2012,09,17,08,35,16.30
2012,09,17,08,36,16.40
2012,09,17,08,37,16.40
2012,09,17,08,38,16.40
2012,09,17,08,39,16.40
2012,09,17,08,40,16.40
2012,09,17,08,41,16.50
2012,09,17,08,42,16.60
2012,09,17,08,43,16.60
2012,09,17,08,44,16.60
2012,09,17,08,45,16.60
2012,09,17,08,46,16.60
2012,09,17,08,47,16.60
2012,09,17,08,48,16.60
2012,09,17,08,49,16.60
2012,09,17,08,50,16.70
2012,09,17,08,51,16.70
2012,09,17,08,52,16.70
2012,09,17,08,53,16.70
2012,09,17,08,54,16.70
2012,09,17,08,55,16.70
2012,09,17,08,56,16.70
2012,09,17,08,57,16.70
2012,09,17,08,58,16.70
2012,09,17,08,59,16.70
2012,09,17,09,00,16.70
2012,09,17,09,01,16.70
2012,09,17,09,02,16.70
2012,09,17,09,03,16.70
2012,09,17,09,04,16.70
2012,09,17,09,05,16.80
2012,09,17,09,06,16.80
2012,09,17,09,07,16.90
2012,09,17,09,08,16.90
2012,09,17,09,09,17.00
2012,09,17,09,10,17.10
2012,09,17,09,11,17.20
2012,09,17,09,12,17.20
2012,09,17,09,13,17.30
2012,09,17,09,14,17.30
2012,09,17,09,15,17.30
2012,09,17,09,16,17.30
2012,09,17,09,17,17.30
2012,09,17,09,18,17.40
2012,09,17,09,19,17.50
2012,09,17,09,20,17.50
2012,09,17,09,21,17.60
2012,09,17,09,22,17.70
2012,09,17,09,23,17.80
2012,09,17,09,24,17.90
2012,09,17,09,25,17.90
2012,09,17,09,26,18.00
2012,09,17,09,27,18.10
2012,09,17,09,28,18.10
2012,09,17,09,29,18.20
2012,09,17,09,30,18.20
2012,09,17,09,31,18.20
2012,09,17,09,32,18.30
2012,09,17,09,33,18.40
2012,09,17,09,34,18.40
2012,09,17,09,35,18.50
2012,09,17,09,36,18.50
2012,09,17,09,37,18.60
2012,09,17,09,38,18.60
2012,09,17,09,39,18.70
2012,09,17,09,40,18.70
2012,09,17,09,41,18.80
2012,09,17,09,42,18.90
2012,09,17,09,43,18.90
2012,09,17,09,44,19.00
2012,09,17,09,45,19.10
2012,09,17,09,46,19.10
2012,09,17,09,47,19.30
2012,09,17,09,48,19.40
2012,09,17,09,49,19.50
2012,09,17,09,50,19.60
2012,09,17,09,51,19.70
2012,09,17,09,52,19.80
2012,09,17,09,53,19.90
2012,09,17,09,54,20.00
2012,09,17,09,55,20.10
2012,09,17,09,56,20.20
2012,09,17,09,57,20.20
2012,09,17,09,58,20.30
2012,09,17,09,59,20.40
2012,09,17,10,00,20.50
2012,09,17,10,01,20.60
2012,09,17,10,02,20.70
2012,09,17,10,03,20.80
2012,09,17,10,04,20.80
2012,09,17,10,05,20.80
2012,09,17,10,06,20.90
2012,09,17,10,07,21.00
2012,09,17,10,08,21.00
2012,09,17,10,09,21.10
2012,09,17,10,10,21.10
2012,09,17,10,11,21.20
2012,09,17,10,12,21.20
2012,09,17,10,13,21.30
2012,09,17,10,14,21.30
2012,09,17,10,15,21.30
2012,09,17,10,16,21.40
2012,09,17,10,17,21.50
2012,09,17,10,18,21.60
2012,09,17,10,19,21.60
2012,09,17,10,20,21.60
2012,09,17,10,21,21.60
2012,09,17,10,22,21.70
2012,09,17,10,23,21.80
2012,09,17,10,24,21.90
2012,09,17,10,25,21.90
2012,09,17,10,26,22.00
2012,09,17,10,27,22.00
2012,09,17,10,28,22.00
2012,09,17,10,29,22.10
2012,09,17,10,30,22.10
2012,09,17,10,31,22.20
2012,09,17,10,32,22.20
2012,09,17,10,33,22.20
2012,09,17,10,34,22.20
2012,09,17,10,35,22.20
2012,09,17,10,36,22.20
2012,09,17,10,37,22.20
2012,09,17,10,38,22.20
2012,09,17,10,39,22.30
2012,09,17,10,40,22.20
2012,09,17,10,41,22.20
2012,09,17,10,42,22.20
2012,09,17,10,43,22.20
2012,09,17,10,44,22.20
2012,09,17,10,45,22.20
2012,09,17,10,46,22.20
2012,09,17,10,47,22.20
2012,09,17,10,48,22.20
2012,09,17,10,49,22.20
2012,09,17,10,50,22.10
2012,09,17,10,51,22.10
2012,09,17,10,52,22.20
2012,09,17,10,53,22.20
2012,09,17,10,54,22.20
2012,09,17,10,55,22.20
2012,09,17,10,56,22.20
2012,09,17,10,57,22.30
2012,09,17,10,58,22.30
2012,09,17,10,59,22.30
2012,09,17,11,00,22.40
2012,09,17,11,01,22.40
2012,09,17,11,02,22.40
2012,09,17,11,03,22.50
2012,09,17,11,04,22.50
2012,09,17,11,05,22.60
2012,09,17,11,06,22.70
2012,09,17,11,07,22.70
2012,09,17,11,08,22.80
2012,09,17,11,09,22.80
2012,09,17,11,10,22.80
2012,09,17,11,11,22.90
2012,09,17,11,12,22.90
2012,09,17,11,13,22.90
2012,09,17,11,14,22.90
2012,09,17,11,15,22.90
2012,09,17,11,16,22.90
2012,09,17,11,17,23.00
2012,09,17,11,18,23.10
2012,09,17,11,19,23.10
2012,09,17,11,20,23.10
2012,09,17,11,21,23.10
2012,09,17,11,22,23.20
2012,09,17,11,23,23.20
2012,09,17,11,24,23.20
2012,09,17,11,25,23.10
2012,09,17,11,26,23.10
2012,09,17,11,27,23.10
2012,09,17,11,28,23.10
2012,09,17,11,29,23.10
2012,09,17,11,30,23.10
2012,09,17,11,31,22.90
2012,09,17,11,32,22.90
2012,09,17,11,33,23.00
2012,09,17,11,34,23.10
2012,09,17,11,35,23.10
2012,09,17,11,36,23.10
2012,09,17,11,37,23.20
2012,09,17,11,38,23.30
2012,09,17,11,39,23.30
2012,09,17,11,40,23.30
2012,09,17,11,41,23.30
2012,09,17,11,42,23.30
2012,09,17,11,43,23.30
2012,09,17,11,44,23.40
2012,09,17,11,45,23.50
2012,09,17,11,46,23.60
2012,09,17,11,47,23.60
2012,09,17,11,48,23.70
2012,09,17,11,49,23.70
2012,09,17,11,50,23.70
2012,09,17,11,51,23.70
2012,09,17,11,52,23.80
2012,09,17,11,53,23.80
2012,09,17,11,54,23.80
2012,09,17,11,55,23.70
2012,09,17,11,56,23.70
2012,09,17,11,57,23.80
2012,09,17,11,58,23.80
2012,09,17,11,59,23.80
2012,09,17,12,00,23.80
2012,09,17,12,01,23.80
2012,09,17,12,02,23.80
2012,09,17,12,03,23.90
2012,09,17,12,04,24.00
2012,09,17,12,05,24.10
2012,09,17,12,06,24.10
2012,09,17,12,07,24.10
2012,09,17,12,08,24.00
2012,09,17,12,09,23.80
2012,09,17,12,10,23.70
2012,09,17,12,11,23.70
2012,09,17,12,12,23.80
2012,09,17,12,13,23.80
2012,09,17,12,14,23.90
2012,09,17,12,15,24.00
2012,09,17,12,16,24.00
2012,09,17,12,17,24.00
2012,09,17,12,18,24.10
2012,09,17,12,19,24.10
2012,09,17,12,20,24.10
2012,09,17,12,21,24.10
2012,09,17,12,22,24.00
2012,09,17,12,23,23.90
2012,09,17,12,24,24.00
2012,09,17,12,25,24.10
2012,09,17,12,26,24.10
2012,09,17,12,27,24.10
2012,09,17,12,28,24.10
2012,09,17,12,29,24.10
2012,09,17,12,30,24.10
2012,09,17,12,31,24.10
2012,09,17,12,32,24.10
2012,09,17,12,33,24.10
2012,09,17,12,34,24.10
2012,09,17,12,35,24.20
2012,09,17,12,36,24.30
2012,09,17,12,37,24.40
2012,09,17,12,38,24.50
2012,09,17,12,39,24.50
2012,09,17,12,40,24.70
2012,09,17,12,41,24.70
2012,09,17,12,42,24.70
2012,09,17,12,43,24.70
2012,09,17,12,44,24.60
2012,09,17,12,45,24.50
2012,09,17,12,46,24.50
2012,09,17,12,47,24.50
2012,09,17,12,48,24.50
2012,09,17,12,49,24.50
2012,09,17,12,50,24.60
2012,09,17,12,51,24.60
2012,09,17,12,52,24.70
2012,09,17,12,53,24.70
2012,09,17,12,54,24.70
2012,09,17,12,55,24.80
2012,09,17,12,56,24.90
2012,09,17,12,57,24.90
2012,09,17,12,58,25.00
2012,09,17,12,59,25.00
2012,09,17,13,00,25.00
2012,09,17,13,01,25.00
2012,09,17,13,02,25.00
2012,09,17,13,03,25.00
2012,09,17,13,04,25.10
2012,09,17,13,05,25.00
2012,09,17,13,06,25.10
2012,09,17,13,07,25.10
2012,09,17,13,08,25.10
2012,09,17,13,09,25.20
2012,09,17,13,10,25.20
2012,09,17,13,11,25.20
2012,09,17,13,12,25.30
2012,09,17,13,13,25.40
2012,09,17,13,14,25.40
2012,09,17,13,15,25.50
2012,09,17,13,16,25.60
2012,09,17,13,17,25.60
2012,09,17,13,18,25.70
2012,09,17,13,19,25.70
2012,09,17,13,20,25.60
2012,09,17,13,21,25.60
2012,09,17,13,22,25.60
2012,09,17,13,23,25.60
2012,09,17,13,24,25.50
2012,09,17,13,25,25.40
2012,09,17,13,26,25.50
2012,09,17,13,27,25.50
2012,09,17,13,28,25.50
2012,09,17,13,29,25.60
2012,09,17,13,30,25.60
2012,09,17,13,31,25.60
2012,09,17,13,32,25.70
2012,09,17,13,33,25.70
2012,09,17,13,34,25.80
2012,09,17,13,35,25.90
2012,09,17,13,36,25.80
2012,09,17,13,37,25.80
2012,09,17,13,38,25.80
2012,09,17,13,39,25.70
2012,09,17,13,40,25.70
2012,09,17,13,41,25.60
2012,09,17,13,42,25.60
2012,09,17,13,43,25.70
2012,09,17,13,44,25.70
2012,09,17,13,45,25.70
2012,09,17,13,46,25.70
2012,09,17,13,47,25.70
2012,09,17,13,48,25.70
2012,09,17,13,49,25.60
2012,09,17,13,50,25.60
2012,09,17,13,51,25.70
2012,09,17,13,52,25.70
2012,09,17,13,53,25.70
2012,09,17,13,54,25.70
2012,09,17,13,55,25.70
2012,09,17,13,56,25.70
2012,09,17,13,57,25.70
2012,09,17,13,58,25.70
2012,09,17,13,59,25.80
2012,09,17,14,00,25.80
2012,09,17,14,01,25.80
2012,09,17,14,02,25.80
2012,09,17,14,03,25.80
2012,09,17,14,04,25.70
2012,09,17,14,05,25.70
2012,09,17,14,06,25.70
2012,09,17,14,07,25.70
2012,09,17,14,08,25.70
2012,09,17,14,09,25.80
2012,09,17,14,10,25.80
2012,09,17,14,11,25.90
2012,09,17,14,12,26.00
2012,09,17,14,13,26.10
2012,09,17,14,14,26.20
2012,09,17,14,15,26.20
2012,09,17,14,16,26.20
2012,09,17,14,17,26.30
2012,09,17,14,18,26.40
2012,09,17,14,19,26.40
2012,09,17,14,20,26.50
2012,09,17,14,21,26.60
2012,09,17,14,22,26.50
2012,09,17,14,23,26.40
2012,09,17,14,24,26.40
2012,09,17,14,25,26.40
2012,09,17,14,26,26.50
2012,09,17,14,27,26.60
2012,09,17,14,28,26.60
2012,09,17,14,29,26.60
2012,09,17,14,30,26.50
2012,09,17,14,31,26.40
2012,09,17,14,32,26.40
2012,09,17,14,33,26.40
2012,09,17,14,34,26.40
2012,09,17,14,35,26.50
2012,09,17,14,36,26.60
2012,09,17,14,37,26.50
2012,09,17,14,38,26.50
2012,09,17,14,39,26.40
2012,09,17,14,40,26.40
2012,09,17,14,41,26.30
2012,09,17,14,42,26.30
2012,09,17,14,43,26.30
2012,09,17,14,44,26.30
2012,09,17,14,45,26.20
2012,09,17,14,46,26.00
2012,09,17,14,47,25.90
2012,09,17,14,48,25.90
2012,09,17,14,49,25.90
2012,09,17,14,50,25.90
2012,09,17,14,51,26.00
2012,09,17,14,52,26.00
2012,09,17,14,53,26.10
2012,09,17,14,54,26.10
2012,09,17,14,55,26.20
2012,09,17,14,56,26.20
2012,09,17,14,57,26.20
2012,09,17,14,58,26.20
2012,09,17,14,59,26.20
2012,09,17,15,00,26.20
2012,09,17,15,01,26.20
2012,09,17,15,02,26.20
2012,09,17,15,03,26.30
2012,09,17,15,04,26.30
2012,09,17,15,05,26.30
2012,09,17,15,06,26.30
2012,09,17,15,07,26.40
2012,09,17,15,08,26.40
2012,09,17,15,09,26.40
2012,09,17,15,10,26.40
2012,09,17,15,11,26.40
2012,09,17,15,12,26.40
2012,09,17,15,13,26.30
2012,09,17,15,14,26.30
2012,09,17,15,15,26.30
2012,09,17,15,16,26.30
2012,09,17,15,17,26.20
2012,09,17,15,18,26.10
2012,09,17,15,19,26.00
2012,09,17,15,20,25.90
2012,09,17,15,21,25.90
2012,09,17,15,22,25.80
2012,09,17,15,23,25.80
2012,09,17,15,24,25.70
2012,09,17,15,25,25.70
2012,09,17,15,26,25.70
2012,09,17,15,27,25.60
2012,09,17,15,28,25.60
2012,09,17,15,29,25.60
2012,09,17,15,30,25.50
2012,09,17,15,31,25.50
2012,09,17,15,32,25.50
2012,09,17,15,33,25.40
2012,09,17,15,34,25.40
2012,09,17,15,35,25.40
2012,09,17,15,36,25.40
2012,09,17,15,37,25.40
2012,09,17,15,38,25.40
2012,09,17,15,39,25.40
2012,09,17,15,40,25.40
2012,09,17,15,41,25.40
2012,09,17,15,42,25.50
2012,09,17,15,43,25.50
2012,09,17,15,44,25.50
2012,09,17,15,45,25.50
2012,09,17,15,46,25.50
2012,09,17,15,47,25.60
2012,09,17,15,48,25.60
2012,09,17,15,49,25.60
2012,09,17,15,50,25.60
2012,09,17,15,51,25.60
2012,09,17,15,52,25.60
2012,09,17,15,53,25.60
2012,09,17,15,54,25.60
2012,09,17,15,55,25.60
2012,09,17,15,56,25.60
2012,09,17,15,57,25.60
2012,09,17,15,58,25.70
2012,09,17,15,59,25.70
2012,09,17,16,00,25.70
2012,09,17,16,01,25.70
2012,09,17,16,02,25.70
2012,09,17,16,03,25.70
2012,09,17,16,04,25.70
2012,09,17,16,05,25.70
2012,09,17,16,06,25.70
2012,09,17,16,07,25.70
2012,09,17,16,08,25.70
2012,09,17,16,09,25.60
2012,09,17,16,10,25.60
2012,09,17,16,11,25.60
2012,09,17,16,12,25.50
2012,09,17,16,13,25.50
2012,09,17,16,14,25.40
2012,09,17,16,15,25.40
2012,09,17,16,16,25.40
2012,09,17,16,17,25.40
2012,09,17,16,18,25.30
2012,09,17,16,19,25.30
2012,09,17,16,20,25.30
2012,09,17,16,21,25.30
2012,09,17,16,22,25.20
2012,09,17,16,23,25.20
2012,09,17,16,24,25.20
2012,09,17,16,25,25.20
2012,09,17,16,26,25.20
2012,09,17,16,27,25.20
2012,09,17,16,28,25.20
2012,09,17,16,29,25.10
2012,09,17,16,30,25.10
2012,09,17,16,31,25.10
2012,09,17,16,32,25.10
2012,09,17,16,33,25.10
2012,09,17,16,34,25.10
2012,09,17,16,35,25.10
2012,09,17,16,36,25.10
2012,09,17,16,37,25.10
2012,09,17,16,38,25.10
2012,09,17,16,39,25.10
2012,09,17,16,40,25.10
2012,09,17,16,41,25.00
2012,09,17,16,42,25.00
2012,09,17,16,43,25.00
2012,09,17,16,44,24.90
2012,09,17,16,45,24.90
2012,09,17,16,46,24.90
2012,09,17,16,47,24.80
2012,09,17,16,48,24.80
2012,09,17,16,49,24.80
2012,09,17,16,50,24.70
2012,09,17,16,51,24.70
2012,09,17,16,52,24.70
2012,09,17,16,53,24.70
2012,09,17,16,54,24.60
2012,09,17,16,55,24.60
2012,09,17,16,56,24.60
2012,09,17,16,57,24.60
2012,09,17,16,58,24.60
2012,09,17,16,59,24.50
2012,09,17,17,00,24.50
2012,09,17,17,01,24.50
2012,09,17,17,02,24.50
2012,09,17,17,03,24.40
2012,09,17,17,04,24.40
2012,09,17,17,05,24.40
2012,09,17,17,06,24.30
2012,09,17,17,07,24.30
2012,09,17,17,08,24.20
2012,09,17,17,09,24.20
2012,09,17,17,10,24.20
2012,09,17,17,11,24.10
2012,09,17,17,12,24.10
2012,09,17,17,13,24.10
2012,09,17,17,14,24.10
2012,09,17,17,15,24.10
2012,09,17,17,16,23.90
2012,09,17,17,17,23.90
2012,09,17,17,18,23.90
2012,09,17,17,19,23.90